Regional Weather Roundup
Issued by NWS Portland, ME

Home | Current Version | Previous Version | Text Only | Print | Product List | Glossary On
Versions: 1 2 3 4 5 6 7 8 9 10 11 12 13 14 15 16 17 18 19 20 21 22 23 24 25 26 27 28 29 30 31 32 33 34 35 36 37 38 39 40 41 42 43 44 45 46 47 48 49 50
000
ASUS41 KGYX 290910
RWRGYX
WEATHER ROUNDUP FOR MAINE AND NEW HAMPSHIRE
NATIONAL WEATHER SERVICE GRAY ME
500 AM EDT SAT AUG 29 2015

MEZ002-005-006-010-012-015-018-020-021-024-026-027-029-291000-
MAINE

CITY           SKY/WX    TMP DP  RH WIND       PRES   REMARKS
PORTLAND       CLEAR     57  55  93 W3        30.14S
SANFORD        CLEAR     48  45  87 CALM      30.15S
BAR HARBOR     PTCLDY    55  55 100 CALM      30.12S
WISCASSET      PTCLDY    53  51  93 CALM      30.16R
ROCKLAND       CLEAR     54  52  94 W3        30.12R
FRYEBURG       FOG       49  49 100 CALM      30.16S VSB 3/4
LEWISTONAUBURN CLEAR     52 N/A N/A CALM      30.15R
AUGUSTA        CLEAR     60  55  83 NW6       30.15R
WATERVILLE     CLEAR     54  52  94 CALM      30.12R
BANGOR         MOCLDY    53  52  96 CALM      30.14R
GREENVILLE       N/A     58  54  86 NW3       30.11F
MILLINOCKET    CLEAR     57  55  93 CALM      30.11S
HOULTON        CLEAR     50  48  93 CALM      30.08S
PRESQUE ISLE   CLEAR     52  46  82 CALM      30.07S
FRENCHVILLE    CLEAR     56  53  90 CALM      30.05S
CARIBOU        CLEAR     54  52  93 SW6       30.06S
$$

NHZ002-005-008-009-011-012-014-291000-
NEW HAMPSHIRE

CITY           SKY/WX    TMP DP  RH WIND       PRES   REMARKS
PORTSMOUTH     MOCLDY    57  55  93 NW3       30.14R
ROCHESTER      PTCLDY    54  52  93 NW3       30.15R
NASHUA         PTCLDY    54  53  97 CALM      30.16S
MANCHESTER     MOCLDY    57  52  83 CALM      30.14S
CONCORD        PTCLDY    51  49  92 CALM      30.16S
LACONIA        CLEAR     57  54  88 CALM      30.16S
PLYMOUTH       FOG       51  50  97 CALM      30.17S VSB 1/2
BERLIN         FOG       48  47  96 CALM      30.18S VSB 1/4
WHITEFIELD     CLOUDY    46  44  93 CALM      30.18S
JAFFREY        CLEAR     51  49  92 CALM      30.19S
KEENE          CLOUDY    54  48  82 CALM      30.19S VSB<1/4
LEBANON        FOG       55  54  96 CALM      30.18R VSB 1/4
MT WASHINGTON  CLOUDY    50  21  32 W18         N/A
$$

VTZ005-007-008-291000-
VERMONT

CITY           SKY/WX    TMP DP  RH WIND       PRES   REMARKS
ST JOHNSBURY     N/A     53  51  93 MISG      30.17R
MONTPELIER     FOG       53  52  96 CALM      30.22R VSB 1/4
BURLINGTON     CLEAR     56  53  90 SE3       30.17R
$$

MAZ007-012-024-CTZ003-RIZ002-NYZ038-NYZ072-291000-
SOUTHERN NEW ENGLAND AND NY

CITY           SKY/WX    TMP DP  RH WIND       PRES   REMARKS
BOSTON         PTCLDY    65  57  75 W3        30.16R
WORCESTER      CLEAR     58  51  78 W6        30.19S
NANTUCKET      CLEAR     64  62  93 W7        30.16F
PROVIDENCE     CLEAR     60  56  86 W6        30.17S
HARTFORD       CLEAR     56  54  93 CALM      30.17F
ALBANY         PTCLDY    55  52  89 CALM      30.19S
NEW YORK CITY  PTCLDY    71  57  61 NW5       30.18R
$$

ANZ081-ANZ082-ANZ150-NHZ014-MEZ023>029-291000-
COASTAL MARINE OBSERVATIONS

STATION/POSITION TIME  TEMP    WIND        PRES    WAVE
                       AIR SEA DIR/SP/G            HT/PER
                 (UTC) (F)     (DEG/KT/KT) (MB)    (FT/S)
MOUNT DESERT ROC 0900   58     240/  9/  9 1020.0F
MATINICUS ROCK   0900   62     250/ 12/ 12 1020.0R
ISLE OF SHOALS   0900   63     310/  6/  7 1020.3S
JEFFREYS LEDGE   0803      69                N/A     3/ 9
CASHES LEDGE BUO 0850   69                 1020.4R   4/11
GEORGES BANK BUO 0850   67 68  320/  6/  6 1021.0F   5/10
$$

.............KEY..............
   WCI - WIND CHILL
   TC  - TEMPERATURE IN CELSIUS
   VSB - VISIBILITY IN MILES
   HX  - HEAT INDEX
   FAIR- INDICATES FEW OR NO CLOUDS BELOW 12,000 FT, WITH NO
         SIGNIFICANT WEATHER AND/OR OBSTRUCTIONS TO VISIBILITY.





USA.gov is the U.S. government's official web portal to all federal, state and local government web resources and services.